Wind_Speed
39 37 38 35 34 33 35 34 35 36 36 38 41 40 41 47 46 49 54 60 66 61 59 56 53 55 39 24 24 22 21 14 15 38 28 40 54 58 58 62 66 72 65 46 51 57 55
39 42 43 38 37 35 34 35 36 37 38 36 40 40 41 46 47 49 54 60 65 60 58 55 52 49 34 22 23 29 22 19 21 31 30 42 56 59 55 58 64 71 65 51 46 52 56
41 40 43 46 40 38 34 36 35 36 37 37 38 39 39 45 46 49 54 59 63 59 57 52 52 49 31 20 20 22 17 24 23 29 34 45 51 51 46 50 60 71 54 60 40 53 44
45 42 44 44 42 42 37 36 36 37 37 37 39 39 38 43 45 48 54 58 61 58 55 50 50 48 27 17 16 21 9 24 21 33 31 48 46 47 35 49 60 71 62 47 48 54 47
51 48 49 48 49 41 44 37 36 36 38 38 38 37 39 42 44 46 52 57 59 57 51 47 51 47 28 18 12 21 15 25 26 35 35 52 48 37 50 41 55 65 55 59 51 37 37
53 56 59 55 52 51 43 36 34 40 37 38 38 36 39 40 42 44 51 55 58 54 49 47 47 44 25 18 15 18 7 30 31 35 38 48 46 34 27 47 48 63 59 52 48 59 43
54 58 58 59 56 54 51 38 31 37 36 38 37 34 37 38 39 43 49 53 55 48 46 45 47 40 26 25 15 7 18 26 23 32 41 45 37 32 39 37 47 55 59 39 40 33 41
59 58 59 62 60 62 54 50 39 31 34 38 35 33 35 36 37 41 46 52 52 48 42 41 41 33 23 19 18 21 21 12 17 25 44 37 31 33 29 32 45 53 50 47 34 28 37
58 59 60 59 59 58 55 57 40 28 35 39 35 30 32 35 35 39 44 50 49 44 38 38 39 27 17 18 25 30 22 16 25 37 46 32 23 27 27 33 41 45 29 30 33 35 46
58 61 58 58 62 63 61 58 34 31 30 40 35 27 30 32 32 37 41 47 45 42 34 34 34 16 16 26 26 24 23 25 26 37 34 29 22 30 26 24 33 37 39 27 32 26 33
68 70 70 65 68 69 62 63 44 36 28 38 36 25 28 28 28 33 38 44 42 40 29 34 30 11 20 24 24 19 30 33 16 41 28 19 25 29 27 25 26 30 46 31 27 24 30
70 72 74 70 76 75 69 66 62 37 27 33 35 23 25 25 24 29 35 40 41 36 24 27 26 14 16 22 17 18 27 22 25 23 23 22 22 25 25 23 19 19 20 35 27 24 19
83 83 80 81 80 78 74 75 62 43 29 31 34 20 23 22 21 26 32 36 38 33 29 22 21 12 22 21 22 24 19 14 13 12 14 23 21 21 17 20 25 27 24 21 25 27 25
93 95 90 83 77 70 66 63 53 46 27 29 30 17 20 20 18 22 28 32 35 34 22 14 17 11 24 23 30 34 25 19 14 17 18 17 18 20 17 20 25 26 27 25 22 22 24
93 88 78 64 59 60 54 53 52 34 27 26 27 16 19 17 15 19 23 29 32 33 24 8 11 10 31 32 29 24 26 21 22 19 17 16 15 14 15 17 20 25 25 23 19 19 20
72 61 46 46 48 55 52 49 50 31 21 19 23 15 17 15 13 16 19 25 29 32 21 5 6 5 28 29 25 25 19 16 13 15 15 13 13 15 14 14 18 23 24 25 24 23 23
43 43 38 40 47 55 54 51 50 33 28 27 21 18 15 14 11 12 17 21 27 31 25 5 4 2 16 39 29 23 13 7 6 8 8 6 9 11 13 14 15 18 24 24 24 24 24
34 42 37 38 51 56 55 53 48 35 32 22 18 19 16 13 10 9 13 19 24 28 28 10 6 9 14 33 31 23 20 15 13 11 11 9 9 11 14 16 18 15 18 22 26 25 24
40 42 31 49 58 51 54 54 48 38 33 23 18 19 17 13 8 7 10 14 20 25 27 21 5 13 16 21 26 20 18 19 20 14 8 8 8 7 6 11 18 17 17 18 21 20 20
41 38 32 63 57 54 43 52 44 35 34 23 20 22 19 15 9 7 6 11 18 22 26 23 8 13 18 20 23 22 20 17 18 12 12 7 8 6 7 7 8 15 16 17 20 23 18
38 26 54 64 54 48 48 48 35 34 29 24 24 23 18 15 10 7 2 7 14 18 23 25 20 2 15 19 20 18 21 23 21 21 18 15 13 12 9 9 9 10 13 16 18 15 23
25 26 65 65 44 46 52 47 35 31 31 29 28 23 19 16 11 7 2 4 10 15 20 23 22 18 0 14 17 18 19 19 21 23 23 22 20 20 17 15 15 13 14 14 15 17 17
27 51 62 50 51 44 42 47 29 32 28 29 32 24 20 17 13 8 4 2 7 12 17 21 23 24 14 1 16 21 20 19 19 19 19 22 22 22 20 20 18 16 15 17 16 16 16
50 68 66 48 47 56 38 41 31 32 34 32 33 26 20 17 14 10 6 3 3 9 11 17 21 24 22 21 6 16 23 20 19 20 22 20 21 22 21 21 22 18 18 17 18 20 20
61 76 54 46 48 48 50 36 36 34 26 34 33 27 21 18 15 12 8 6 2 7 11 12 18 23 24 23 17 8 11 21 22 20 19 21 23 22 24 24 26 24 19 19 20 22 22
73 52 57 52 42 44 42 37 37 36 30 38 35 29 23 18 16 14 10 8 5 4 7 10 13 18 24 25 23 17 8 9 22 23 22 21 20 21 22 23 24 29 30 26 24 25 24
55 53 60 54 45 40 40 35 39 33 30 42 38 29 25 19 17 16 11 8 6 1 3 7 9 13 17 21 24 23 17 9 9 19 24 24 23 21 21 22 23 26 27 28 28 29 30
46 52 55 48 38 40 38 38 37 34 34 36 32 28 24 22 19 16 12 9 6 4 1 2 8 11 14 15 17 21 20 18 12 8 18 24 25 24 26 26 25 26 28 29 29 30 31
46 50 48 50 39 47 36 41 39 29 27 38 33 29 26 19 19 17 13 9 6 5 5 3 3 7 10 14 15 16 18 21 19 9 9 14 20 23 25 27 30 32 31 32 33 33 34
Wind_Direction
297 303 306 306 298 297 298 299 303 307 310 313 314 322 325 327 328 332 334 337 340 342 340 339 341 343 336 332 341 342 219 224 190 182 192 197 194 190 196 194 197 197 191 193 200 204 203
307 301 300 303 303 300 298 298 301 306 309 312 313 320 325 327 328 332 335 338 341 343 341 339 343 345 335 332 343 343 213 212 191 178 181 190 189 189 193 198 196 194 193 192 199 203 210
313 312 303 301 301 303 302 299 297 301 306 309 311 318 323 326 329 332 336 339 341 342 341 340 344 346 337 332 340 349 205 216 181 176 190 186 185 183 184 199 195 195 192 195 188 202 203
314 316 317 307 302 298 301 295 298 301 305 307 310 316 323 327 330 332 335 340 341 343 342 341 345 347 335 328 338 328 324 207 191 190 175 182 175 186 180 194 195 193 186 182 199 205 207
314 314 316 313 313 300 298 296 297 300 302 306 307 313 320 326 330 333 335 340 341 342 342 344 347 348 339 319 316 315 338 194 192 183 180 178 173 173 195 189 194 194 183 188 200 191 195
304 308 311 312 313 311 294 292 298 301 300 305 303 312 318 325 330 333 336 341 341 342 344 346 350 346 347 339 315 308 263 192 192 169 176 178 185 177 162 194 194 189 182 193 212 216 217
298 302 304 306 308 311 304 289 287 297 297 303 300 309 317 323 331 332 337 342 342 343 349 347 350 351 349 345 339 105 169 183 172 159 169 168 176 182 186 183 192 200 189 187 194 212 197
292 296 297 301 303 305 303 297 277 302 297 303 296 306 315 321 331 332 338 342 342 348 348 349 354 358 2 26 65 117 147 141 172 157 166 166 169 171 174 192 198 194 198 192 204 206 199
296 295 297 295 296 299 304 301 276 299 296 302 293 302 312 320 329 331 339 341 344 350 350 353 2 13 41 83 112 125 107 142 148 153 159 156 164 163 169 193 195 191 186 205 214 211 219
291 296 297 291 291 294 296 299 268 280 291 291 291 298 309 318 327 329 339 342 345 352 353 359 7 33 99 119 112 131 135 150 128 148 159 165 166 182 176 183 197 196 197 169 191 205 210
287 288 291 289 285 287 288 292 270 263 280 282 290 293 305 317 324 328 339 342 346 353 355 1 10 86 134 127 130 124 144 151 122 141 145 171 166 179 177 195 198 206 202 196 179 175 195
289 291 287 276 275 277 278 281 285 256 261 276 286 287 302 318 321 329 339 343 348 354 359 7 16 114 141 151 145 139 155 147 148 113 125 136 159 172 187 192 177 193 207 218 208 203 213
290 290 282 273 268 271 268 272 274 250 255 269 279 277 298 315 318 328 339 344 347 352 4 10 21 115 151 148 158 160 159 168 181 141 129 118 141 176 200 204 201 212 227 216 227 227 226
292 289 284 274 263 260 260 258 258 244 250 264 272 266 289 308 314 326 341 347 352 356 0 12 24 119 152 157 143 139 156 144 156 154 166 159 163 160 181 203 209 202 211 225 227 228 219
297 289 281 264 251 241 236 238 250 224 236 254 264 257 276 299 307 323 343 350 356 358 7 9 27 94 151 149 145 145 130 128 128 133 150 157 166 181 182 186 201 213 216 221 228 222 218
294 283 268 245 222 212 217 228 235 208 225 251 258 245 268 288 299 321 345 355 357 0 9 17 46 89 184 172 158 154 140 134 141 151 158 174 183 184 194 203 200 205 219 221 225 225 223
279 268 249 234 203 203 208 216 223 198 209 223 253 235 255 278 288 318 344 359 3 2 4 14 124 152 167 197 179 177 188 193 191 196 217 214 198 205 204 206 208 209 213 214 220 224 229
246 252 244 220 193 194 201 208 195 200 208 214 240 225 243 263 274 312 347 0 15 7 5 23 174 155 169 191 194 214 229 226 209 237 228 210 212 214 215 214 213 211 213 215 217 224 233
238 249 244 185 178 187 198 200 202 199 207 208 225 216 238 246 254 302 355 0 18 11 5 11 188 184 176 182 191 197 205 212 219 226 206 211 220 220 225 224 223 213 217 223 223 225 227
237 242 207 173 171 188 180 212 192 201 208 203 216 209 226 233 239 285 7 5 22 22 11 15 12 204 195 196 213 220 216 214 219 217 221 228 224 226 237 223 212 224 235 232 229 229 219
238 235 180 171 170 178 194 208 186 195 203 206 207 203 220 222 225 259 49 19 24 29 22 19 25 298 206 209 213 223 229 229 229 227 229 241 251 248 231 225 222 223 235 235 241 232 229
226 212 170 162 169 172 200 189 188 198 204 202 204 197 214 215 214 232 128 43 29 37 33 26 29 26 316 216 216 225 231 229 235 235 235 240 247 255 254 248 244 253 262 253 244 243 241
194 178 166 166 168 177 199 195 186 192 197 200 197 193 212 209 208 207 167 80 38 34 39 27 33 33 24 310 216 223 225 232 238 241 243 242 245 247 249 251 250 240 242 248 252 250 246
181 178 168 162 167 186 189 200 188 188 194 202 192 191 208 205 199 193 183 178 69 32 39 32 34 43 28 24 5 232 230 230 235 239 243 244 249 256 251 251 255 251 248 244 243 247 252
187 179 169 167 166 190 196 183 177 180 193 203 190 193 197 200 195 190 186 188 145 44 30 43 41 45 39 30 21 356 249 232 238 240 244 245 245 251 256 257 260 268 269 265 254 247 251
187 170 168 177 166 182 182 182 176 180 195 199 192 190 189 205 194 188 187 192 193 59 46 37 44 44 44 35 30 21 345 254 238 239 243 245 252 257 260 262 264 261 264 269 273 270 267
174 159 165 169 173 193 187 181 187 184 196 194 192 191 193 192 196 191 188 192 201 209 48 34 36 39 46 38 33 30 23 354 273 246 245 247 247 250 254 258 260 260 263 261 259 262 264
162 154 160 161 164 180 190 186 184 189 184 194 185 188 182 188 206 193 192 195 211 215 218 23 28 34 34 34 27 27 28 23 8 288 249 249 255 256 257 259 261 262 263 264 263 264 267
161 156 167 178 182 185 186 186 189 177 188 196 187 183 184 197 198 195 194 207 221 223 243 296 5 22 22 28 29 14 16 18 15 11 296 262 260 260 265 261 261 259 260 264 262 262 264
Height
5794 5791 5789 5786 5783 5781 5780 5775 5771 5767 5760 5757 5752 5743 5736 5730 5722 5713 5702 5689 5675 5659 5644 5630 5620 5610 5598 5594 5589 5582 5582 5582 5581 5586 5593 5600 5614 5627 5641 5653 5668 5681 5697 5708 5718 5728 5736
5786 5785 5781 5779 5776 5774 5773 5768 5766 5763 5757 5749 5746 5738 5732 5725 5718 5708 5696 5683 5669 5654 5639 5625 5616 5605 5595 5591 5585 5580 5579 5580 5583 5587 5592 5599 5612 5624 5639 5652 5663 5679 5692 5703 5715 5724 5733
5782 5777 5774 5773 5770 5767 5765 5763 5758 5754 5751 5745 5740 5732 5725 5720 5712 5704 5691 5679 5665 5649 5635 5622 5611 5600 5592 5588 5582 5579 5577 5578 5584 5587 5591 5599 5613 5626 5642 5650 5663 5675 5688 5701 5708 5719 5725
5775 5771 5768 5765 5763 5761 5758 5755 5752 5749 5745 5740 5734 5728 5722 5715 5708 5700 5687 5674 5661 5645 5631 5618 5608 5597 5589 5584 5579 5577 5575 5578 5581 5588 5593 5604 5616 5627 5635 5648 5657 5669 5680 5690 5704 5714 5723
5764 5763 5760 5758 5755 5753 5752 5749 5746 5743 5739 5735 5729 5723 5718 5711 5705 5696 5684 5671 5658 5643 5629 5616 5605 5594 5586 5580 5577 5574 5573 5576 5581 5587 5594 5605 5614 5628 5639 5647 5655 5664 5676 5687 5696 5707 5713
5756 5753 5751 5749 5747 5745 5744 5741 5740 5737 5734 5729 5724 5719 5715 5708 5702 5692 5681 5669 5654 5641 5627 5614 5604 5595 5584 5577 5573 5569 5570 5574 5580 5590 5597 5607 5617 5628 5636 5644 5652 5665 5679 5687 5693 5702 5708
5747 5744 5741 5741 5739 5739 5736 5734 5730 5729 5727 5724 5719 5715 5710 5706 5698 5690 5679 5668 5655 5640 5624 5613 5603 5591 5580 5575 5567 5565 5569 5579 5585 5594 5601 5613 5622 5632 5641 5649 5655 5665 5677 5687 5690 5700 5703
5734 5733 5732 5730 5730 5729 5728 5725 5722 5722 5720 5718 5713 5711 5706 5702 5695 5687 5677 5666 5654 5638 5626 5615 5607 5592 5583 5577 5572 5573 5581 5590 5593 5601 5608 5619 5628 5635 5642 5651 5655 5662 5676 5684 5689 5697 5700
5719 5719 5720 5719 5721 5720 5720 5717 5716 5714 5715 5712 5709 5705 5702 5698 5692 5684 5675 5664 5651 5636 5626 5616 5607 5595 5589 5587 5586 5590 5593 5596 5602 5607 5616 5625 5632 5637 5644 5650 5657 5667 5679 5682 5691 5696 5699
5704 5703 5704 5707 5708 5710 5711 5710 5709 5707 5708 5706 5704 5700 5697 5694 5689 5681 5673 5662 5649 5636 5626 5619 5609 5602 5598 5596 5599 5602 5603 5605 5610 5617 5624 5631 5635 5640 5648 5654 5660 5668 5673 5679 5686 5693 5698
5688 5688 5689 5691 5693 5695 5699 5701 5701 5698 5700 5699 5698 5695 5692 5689 5685 5679 5672 5661 5648 5637 5629 5619 5612 5608 5606 5607 5608 5608 5611 5612 5614 5623 5631 5631 5638 5643 5648 5653 5661 5667 5675 5681 5685 5690 5695
5665 5665 5667 5673 5675 5679 5686 5688 5690 5691 5691 5692 5691 5690 5688 5686 5681 5676 5668 5660 5647 5639 5629 5621 5616 5612 5614 5615 5615 5617 5618 5623 5624 5626 5631 5637 5642 5648 5653 5658 5664 5669 5675 5680 5684 5688 5693
5635 5636 5640 5645 5651 5660 5668 5671 5678 5679 5683 5684 5684 5684 5683 5681 5677 5672 5666 5658 5648 5638 5628 5625 5620 5617 5619 5622 5621 5623 5626 5627 5631 5635 5638 5640 5647 5652 5656 5661 5666 5670 5672 5677 5681 5685 5691
5595 5594 5602 5610 5620 5635 5647 5654 5662 5667 5674 5676 5677 5678 5678 5676 5673 5669 5664 5657 5647 5637 5629 5626 5623 5621 5622 5626 5627 5629 5631 5633 5636 5638 5644 5647 5651 5654 5656 5659 5665 5668 5672 5677 5682 5686 5692
5560 5558 5560 5568 5585 5607 5623 5635 5647 5656 5664 5668 5670 5670 5672 5671 5669 5666 5662 5655 5647 5637 5630 5627 5625 5626 5626 5628 5632 5633 5635 5638 5640 5643 5647 5649 5651 5654 5656 5659 5664 5666 5672 5677 5681 5683 5687
5526 5523 5530 5540 5556 5580 5602 5622 5633 5644 5653 5659 5662 5664 5666 5666 5665 5663 5660 5653 5646 5636 5629 5627 5626 5626 5627 5629 5633 5635 5637 5641 5644 5647 5649 5651 5653 5655 5657 5659 5663 5665 5671 5675 5678 5681 5684
5504 5506 5513 5522 5543 5568 5588 5604 5620 5632 5642 5650 5656 5658 5661 5661 5661 5660 5657 5652 5644 5637 5629 5627 5627 5625 5626 5628 5632 5635 5639 5641 5644 5646 5648 5651 5654 5656 5658 5659 5661 5665 5668 5671 5675 5680 5682
5494 5495 5502 5514 5534 5559 5577 5596 5607 5624 5633 5642 5648 5652 5655 5656 5658 5656 5654 5650 5644 5637 5629 5626 5626 5628 5627 5630 5632 5635 5638 5641 5644 5646 5648 5650 5651 5654 5656 5658 5660 5664 5666 5669 5672 5677 5677
5484 5487 5497 5507 5531 5554 5569 5589 5603 5615 5625 5634 5640 5645 5648 5651 5653 5652 5651 5649 5643 5638 5630 5624 5624 5627 5629 5632 5635 5637 5638 5641 5643 5645 5647 5649 5651 5652 5654 5657 5658 5660 5663 5666 5668 5671 5673
5473 5481 5492 5504 5528 5546 5568 5585 5595 5608 5619 5627 5634 5639 5643 5646 5648 5648 5648 5647 5642 5638 5632 5626 5622 5623 5626 5630 5632 5634 5635 5638 5641 5644 5645 5647 5648 5651 5654 5655 5657 5658 5659 5662 5664 5667 5671
5464 5475 5488 5506 5525 5545 5563 5570 5589 5600 5612 5621 5627 5632 5637 5641 5643 5645 5645 5644 5640 5638 5633 5626 5622 5619 5621 5624 5627 5630 5632 5635 5637 5640 5642 5645 5647 5648 5650 5652 5654 5656 5658 5659 5661 5665 5666
5458 5468 5488 5503 5523 5542 5556 5570 5580 5594 5606 5614 5620 5626 5631 5635 5638 5640 5642 5641 5639 5637 5634 5628 5622 5617 5617 5620 5625 5627 5629 5631 5633 5636 5638 5641 5643 5645 5647 5649 5651 5653 5654 5656 5658 5660 5662
5457 5466 5486 5504 5520 5538 5556 5568 5578 5589 5601 5607 5613 5619 5625 5630 5633 5636 5639 5638 5637 5635 5634 5629 5624 5618 5616 5617 5620 5622 5624 5628 5630 5632 5635 5637 5639 5641 5643 5645 5647 5651 5652 5652 5653 5655 5657
5457 5463 5478 5496 5513 5530 5540 5556 5570 5582 5593 5600 5608 5614 5620 5625 5628 5632 5634 5635 5635 5634 5633 5630 5626 5620 5618 5615 5616 5619 5621 5624 5626 5628 5630 5633 5635 5636 5638 5640 5643 5646 5647 5647 5649 5649 5651
5456 5460 5478 5496 5512 5529 5543 5554 5562 5573 5585 5594 5602 5609 5615 5620 5623 5628 5630 5632 5632 5632 5631 5629 5626 5623 5619 5616 5614 5615 5616 5620 5622 5624 5626 5627 5629 5632 5633 5636 5637 5638 5640 5641 5642 5644 5644
5459 5470 5483 5497 5511 5531 5544 5554 5561 5570 5579 5589 5597 5603 5610 5616 5619 5623 5626 5628 5630 5630 5630 5628 5626 5623 5620 5617 5614 5613 5613 5616 5617 5620 5622 5624 5625 5628 5628 5629 5631 5633 5635 5635 5635 5638 5638
5466 5472 5486 5503 5518 5532 5543 5552 5562 5568 5575 5584 5592 5599 5606 5611 5615 5619 5622 5624 5626 5627 5627 5626 5625 5623 5620 5618 5616 5614 5614 5613 5613 5615 5616 5618 5620 5622 5624 5625 5627 5628 5627 5627 5629 5632 5627
5466 5473 5484 5498 5511 5526 5537 5547 5557 5566 5574 5582 5588 5595 5602 5607 5612 5615 5618 5621 5622 5624 5624 5624 5624 5622 5620 5617 5616 5615 5612 5611 5610 5610 5612 5613 5615 5618 5617 5618 5621 5619 5618 5619 5619 5617 5616
5468 5475 5486 5499 5513 5519 5531 5542 5553 5563 5571 5580 5585 5591 5597 5604 5608 5611 5614 5617 5619 5620 5621 5622 5622 5621 5619 5617 5616 5613 5611 5609 5609 5608 5608 5609 5611 5612 5613 5611 5610 5608 5609 5608 5606 5606 5607